Starlink 3176

operational
NORAD ID: 51106 Int'l Des: 2022-005 Owner: SPXS Country: US Constellation: starlink
LEOCIRCULAR

Starlink 3176について

説明を読み込み中...

リアルタイム位置

3D地球を読み込み中...

次回通過

高度履歴

Altitude vs Time

uPlot chart will show altitude changes over time

軌道要素

1 51106U 22005C 26036.10157306 .00001168 00000-0 91464-4 0 9996
2 51106 53.2168 75.4168 0001410 87.5050 272.6103 15.08832425223952
Epoch: Feb 5, 2026 • Age: 14 hours

現在のステータス

高度 552.2 km
速度 7.59 km/s
衛星直下点 -36.53°S, 15.5°E
打ち上げ日 Jan 19, 2022
運用期間 4 years
タイプ internet

技術仕様

分類 Payload
質量 297.00 kg
乾燥質量 275.00 kg
総質量 297.00 kg
長さ 0.20 m
直径 2.80 m
スパン 9.00 m
形状 Box + pan
製造者 SPXS
バスタイプ Starlink
フェーズステータス In Orbit
所有者/国 SPXS/US

大規模コンステレーション

Loading constellations...